Home > Time Zones > World Clock > Weather > Mali > Bamako > Past weeks

Flag for Mali Weather past 2 weeks in Bamako, Mali

Now
77 °F

Thunderstorms. Passing clouds.


Feels Like: 78 °F
Forecast: 73 / 86 °F
Wind: 5 mph from Southwest

Location: Bamako / Senou

Current Time: Jul 30, 2014 at 6:03:43 AM

Latest Report: Jul 30, 2014 at 5:30 AM


Visibility: N/A

Pressure: 29.95 "Hg

Humidity: 94%

Dew point: 75 °F

Location of BamakoLocation

Historic Weather in Bamako — Graph

°F

Bamako temperature yesterday

Maximum temperature yesterday: 93 °F (at 3:00 PM)
Minimum temperature yesterday: 77 °F (at 4:00 AM)
Average temperature yesterday: 84 °F

Past Weeks' High & Low Weather Summary

 TemperatureHumidityPressure
High95 °F (Jul 16, 5:00 PM)100% (Jul 15, 4:30 AM)30.09 "Hg (Jul 15, 4:30 AM)
Low70 °F (Jul 17, 8:30 PM)46% (Jul 21, 3:00 PM)29.74 "Hg (Jul 22, 3:00 PM)
Average81 °F80%29.98 "Hg
* Reported Jul 15 4:00 AM — Jul 30 4:30 AM, Bamako, Weather by CustomWeather, © 2014

Note: Actual official high and low records may vary slightly from our data, if they occured in-between our weather recording intervals... More about our weather records

Advertising

Bamako weather history for previous 24 hours

 ConditionsComfort  
Time TempWeatherWind HumidityBarometerVisibility
4:30 AM
Jul 30
77 °FThunderstorms. Passing clouds.5 mph100%29.92 "HgN/A
4:00 AM79 °FThunderstorms. Passing clouds.6 mph94%29.95 "HgN/A
3:30 AM79 °FThunderstorms. Passing clouds.3 mph94%29.92 "HgN/A
3:00 AM79 °FThunderstorms. Passing clouds.1 mph94%29.92 "HgN/A
2:30 AM79 °FThunderstorms. Passing clouds.2 mph94%29.92 "HgN/A
2:00 AM79 °FThunderstorms. Passing clouds.2 mph94%29.92 "HgN/A
1:30 AM79 °FThunderstorms. Passing clouds.2 mph94%29.92 "HgN/A
1:00 AM79 °FThunderstorms. Passing clouds.No wind94%29.95 "HgN/A
12:30 AM81 °FThunderstorms. Passing clouds.1 mph89%29.95 "HgN/A
12:00 AM81 °FThunderstorms. Passing clouds.2 mph89%29.95 "HgN/A
11:30 PM
Jul 29
81 °FThunderstorms. Passing clouds.2 mph84%29.95 "HgN/A
11:00 PM79 °FThunderstorms. Passing clouds.2 mph94%29.95 "HgN/A
10:30 PM81 °FThunderstorms. Passing clouds.3 mph89%29.95 "HgN/A
10:00 PM82 °FThunderstorms. Passing clouds.3 mph79%29.95 "HgN/A
9:30 PM84 °FThunderstorms. Passing clouds.3 mph74%29.92 "HgN/A
8:30 PM84 °FThunderstorms. Passing clouds.6 mph74%29.92 "HgN/A
8:00 PM86 °FThunderstorms. Passing clouds.5 mph70%29.92 "HgN/A
7:30 PM86 °FPassing clouds.6 mph70%29.89 "HgN/A
7:00 PM88 °FPassing clouds.6 mph59%29.89 "HgN/A
6:30 PM90 °FThunderstorms. Partly sunny.6 mph46%29.89 "HgN/A
6:00 PM90 °FThunderstorms. Partly sunny.9 mph49%29.89 "HgN/A
5:30 PM90 °FThunderstorms. Partly sunny.13 mph49%29.86 "HgN/A
5:00 PM91 °FThunderstorms. Broken clouds.8 mph49%29.86 "HgN/A
4:30 PM93 °FBroken clouds.9 mph47%29.86 "HgN/A
4:00 PM93 °FBroken clouds.9 mph47%29.89 "HgN/A
3:30 PM93 °FBroken clouds.8 mph47%29.89 "HgN/A
3:00 PM93 °FBroken clouds.10 mph49%29.92 "HgN/A
2:30 PM91 °FBroken clouds.9 mph49%29.92 "HgN/A
2:00 PM91 °FBroken clouds.9 mph49%29.92 "HgN/A
1:30 PM91 °FBroken clouds.13 mph52%29.92 "HgN/A
1:00 PM91 °FBroken clouds.12 mph52%29.92 "HgN/A
12:30 PM90 °FBroken clouds.12 mph55%29.92 "HgN/A
12:00 PM88 °FBroken clouds.12 mph70%29.95 "HgN/A
11:30 AM88 °FBroken clouds.10 mph62%29.95 "HgN/A
11:00 AM88 °FBroken clouds.12 mph62%29.95 "HgN/A
10:30 AM88 °FPartly sunny.8 mph59%29.95 "HgN/A
10:00 AM86 °FPartly sunny.8 mph66%29.95 "HgN/A
9:30 AM84 °FSunny.8 mph70%29.95 "Hg10 mi
9:00 AM84 °FPartly sunny.6 mph74%29.95 "HgN/A
8:30 AM81 °FPartly sunny.8 mph84%29.95 "HgN/A
8:00 AM81 °FPartly sunny.3 mph89%29.95 "HgN/A
7:30 AM79 °FPartly sunny.1 mph94%29.95 "HgN/A
7:00 AM77 °FPartly sunny.3 mph100%29.95 "HgN/A
6:30 AM77 °FPartly sunny.No wind100%29.95 "HgN/A
6:00 AM77 °FPassing clouds.1 mph100%29.95 "HgN/A
Weather by CustomWeather, © 2014

See weather overviewHow to use our weather pages